Startseite
Über Mich
AHP4
Galerie
Sehschlangen
Tourenbuch
Bookmarks
Elektronik
Bewertung
Geschichten
[Tagesmessung] [Jahreswerte] [Information]

Messwerte vom 27.03.2022

Die letzten Messwerte von 23:58:47 Uhr:
KategorieMesswert
Temperatur [°C]5
Luftdruck [mBar]1012
Sonneneinstrahlung0
Wind [km/h]0 aus Südwest
Niederschlag [l/m²]0
rel.Luftfeucht.93.7%
CO2 [ppm]751

Diagramme
Messwerte vom 27.03.2022
Tagesaggregation
KategorieMinimumMaximumSchnittSumme
Temperatur [°C]42010.2891
Luftdruck [mBar]101210171014.4978
Sonneneinstrahlung247118.2587
Wind [km/h]15
rF [%]44.796.678.37
Niederschlag [l/m²]0
CO2 [ppm]404761632.3
Einordnung alsVegetationstag

Messungen an benachbarten Tagen: Zur Jahresaggregation 2022
Tabelle aller Messwerte
UhrzeitTemperatur [°C]Luftdruck [mBar]SonneWind [km/h]RichtungRegen [l/m²]rF [%]CO2 [ppm]
00:01:48 9 1015 0 0 N 0 87.6 533
00:04:48 9 1015 0 1 NW 0 87.4 542
00:07:48 9 1016 0 1 NW 0 87.5 536
00:10:47 9 1015 0 0 N 0 88.1 548
00:13:47 9 1016 0 1 N 0 88.4 545
00:16:48 9 1015 0 0 SO 0 88.8 544
00:19:45 9 1016 0 0 N 0 88.8 545
00:22:47 9 1016 0 0 NO 0 88.9 548
00:25:45 9 1015 0 1 O 0 88.4 557
00:28:45 9 1015 0 0 O 0 88.6 559
00:31:47 9 1016 0 1 NW 0 89.1 562
00:34:47 9 1015 0 0 N 0 89.1 567
00:37:46 9 1015 0 0 N 0 88.4 576
00:40:45 9 1016 0 0 N 0 88.1 570
00:43:46 9 1015 0 0 N 0 87.9 571
00:46:45 9 1016 0 1 W 0 88 574
00:49:47 9 1016 0 0 N 0 88.1 586
00:52:48 8 1015 0 0 SO 0 87.8 600
00:55:47 8 1016 0 0 SO 0 87.9 609
00:58:47 8 1015 0 0 SW 0 87.9 611
01:01:49 8 1016 0 1 SW 0 87.8 614
01:04:50 8 1015 0 0 SW 0 87.8 617
01:07:46 8 1016 0 0 SW 0 87.8 623
01:10:46 7 1015 0 0 NW 0 88.3 623
01:13:49 7 1015 0 0 NW 0 90 626
01:16:47 7 1016 0 0 NW 0 90.3 625
01:19:49 7 1015 0 0 NW 0 90.2 623
01:22:48 7 1016 0 0 NW 0 89.9 629
01:25:47 6 1016 0 0 NW 0 90.1 627
01:28:48 6 1015 0 0 NW 0 90.6 629
01:31:46 6 1015 0 0 NW 0 91.1 627
01:34:47 6 1016 0 0 NW 0 91.5 633
01:37:46 6 1015 0 0 NW 0 91.7 631
01:40:47 6 1015 0 0 NW 0 91.8 626
01:43:47 6 1016 0 0 NW 0 92.3 628
01:46:46 6 1015 0 0 NW 0 93 629
01:49:45 6 1016 0 0 NW 0 93.4 641
01:52:46 6 1015 0 0 NW 0 93.5 647
01:55:47 6 1015 0 0 NW 0 93.4 635
01:58:46 5 1016 0 0 NW 0 93.4 632
03:01:47 5 1015 0 0 NW 0 93.8 631
03:04:49 5 1015 0 0 NW 0 94.6 631
03:07:47 5 1015 0 0 S 0 95.3 623
03:10:46 5 1015 0 0 S 0 95.6 627
03:13:48 5 1015 0 0 S 0 95.8 626
03:16:47 5 1015 0 0 S 0 96.1 627
03:19:46 5 1016 0 0 S 0 96.2 635
03:22:47 5 1015 0 0 S 0 95.9 639
03:25:47 5 1016 0 0 S 0 95.9 638
03:28:49 5 1015 0 0 S 0 96.4 632
03:31:48 5 1016 0 0 S 0 96.6 627
03:34:47 5 1015 0 0 SO 0 96.6 623
03:37:46 5 1016 0 0 S 0 96.6 624
03:40:45 5 1015 0 0 S 0 96.6 622
03:43:47 5 1015 0 0 SO 0 96.6 617
03:46:44 5 1016 0 0 S 0 96.6 623
03:49:45 5 1016 0 0 S 0 96.6 625
03:52:47 5 1016 0 0 S 0 96.6 632
03:55:48 5 1015 0 0 NW 0 96.6 629
03:58:47 5 1015 0 0 NW 0 96.6 630
04:01:49 5 1015 0 0 NO 0 96.6 627
04:04:48 5 1015 0 0 SW 0 96.6 629
04:07:48 5 1016 0 0 SO 0 96.6 630
04:10:46 5 1015 0 0 S 0 96.6 635
04:13:47 5 1016 0 0 S 0 96.6 626
04:16:48 5 1015 0 0 SW 0 96.6 629
04:19:47 5 1016 0 2 W 0 96.6 630
04:22:50 5 1016 0 0 SO 0 96.6 633
04:25:48 5 1016 0 2 SO 0 96.6 634
04:28:48 5 1016 0 0 S 0 96.6 633
04:31:46 5 1015 0 0 S 0 96.6 633
04:34:45 5 1015 0 0 S 0 96.6 632
04:37:49 5 1015 0 0 NO 0 96.6 635
04:40:47 5 1015 0 0 S 0 96.6 638
04:43:46 6 1016 0 0 SW 0 96.6 637
04:46:46 6 1016 0 1 SW 0 96.6 633
04:49:47 6 1016 0 0 S 0 96.6 630
04:52:47 6 1016 0 0 SW 0 96.6 632
04:55:47 6 1016 0 0 SW 0 96.6 633
04:58:46 6 1016 0 0 SW 0 96.6 638
05:01:47 6 1016 0 0 SW 0 96.6 632
05:04:46 6 1016 0 0 S 0 96.6 623
05:07:46 6 1016 0 0 S 0 96.6 623
05:10:47 6 1016 0 0 SW 0 96.6 629
05:13:45 6 1015 0 1 W 0 96.6 635
05:16:47 6 1016 0 1 NW 0 96.6 633
05:19:45 6 1016 0 1 S 0 96.6 632
05:22:46 6 1016 0 0 S 0 96.6 635
05:25:47 6 1016 0 0 SO 0 96.6 639
05:28:46 6 1016 0 1 SW 0 96.6 641
05:31:46 6 1016 0 0 W 0 96.6 638
05:34:44 6 1015 0 0 W 0 96.6 635
05:37:47 6 1015 0 0 W 0 96.6 630
05:40:46 6 1016 0 0 W 0 96.6 636
05:43:45 6 1015 0 0 W 0 96.6 638
05:46:45 6 1016 0 0 S 0 96.6 639
05:49:46 6 1017 0 0 S 0 96.6 640
05:52:45 6 1016 0 0 S 0 96.6 641
05:55:46 6 1016 0 0 W 0 96.6 642
05:58:48 6 1016 0 0 W 0 96.6 638
06:01:48 6 1016 0 0 W 0 96.6 647
06:04:47 6 1015 0 0 S 0 96.6 640
06:07:47 6 1015 0 0 S 0 96.6 641
06:10:48 6 1016 0 0 S 0 96.6 635
06:13:46 6 1015 0 0 S 0 96.6 629
06:16:48 6 1016 0 0 SO 0 96.6 629
06:19:46 6 1016 0 0 S 0 96.6 635
06:22:47 6 1015 0 0 SO 0 96.6 644
06:25:47 6 1015 0 0 S 0 96.6 644
06:28:47 6 1015 0 0 S 0 96.6 640
06:31:47 6 1015 0 1 NW 0 96.6 633
06:34:46 5 1015 0 0 SO 0 96.6 636
06:37:47 5 1015 0 0 SO 0 96.6 626
06:40:47 5 1016 0 0 NO 0 96.6 633
06:43:46 5 1016 3 0 NO 0 96.6 638
06:46:48 5 1016 5 0 NO 0 96.6 643
06:49:45 5 1015 8 0 S 0 96.6 647
06:52:46 5 1016 12 0 S 0 96.6 638
06:55:45 5 1015 17 0 S 0 96.6 647
06:58:48 5 1016 23 0 S 0 96.6 647
07:01:47 5 1015 31 0 S 0 96.6 644
07:04:48 5 1016 41 0 S 0 96.6 638
07:07:46 5 1015 52 0 S 0 96.6 638
07:10:48 6 1016 64 0 S 0 96.6 642
07:13:48 6 1016 72 0 SW 0 96.6 647
07:16:48 6 1015 81 0 SW 0 96.6 644
07:19:46 6 1015 90 0 SW 0 96.6 640
07:22:48 6 1016 98 0 SW 0 96.6 642
07:25:50 6 1016 108 0 SW 0 96.6 656
07:28:48 6 1015 115 0 SW 0 96.6 655
07:31:50 6 1016 123 1 SO 0 96.6 645
07:34:48 6 1015 131 0 SO 0 96.6 651
07:37:48 6 1015 139 0 W 0 96.6 653
07:40:47 6 1015 145 0 W 0 96.6 654
07:43:45 6 1016 149 0 S 0 96.6 658
07:46:47 6 1015 156 0 S 0 96.6 651
07:49:48 6 1016 163 0 SW 0 96.6 647
07:52:46 6 1016 170 0 S 0 96.6 647
07:55:48 6 1016 175 0 S 0 96.6 650
07:58:47 6 1017 180 0 W 0 96.6 651
08:01:48 6 1016 184 0 S 0 96.6 652
08:04:49 6 1015 185 0 S 0 96.6 653
08:07:49 6 1016 185 0 S 0 96.6 661
08:10:47 6 1016 186 0 S 0 96.6 656
08:13:48 6 1016 188 1 SO 0 96.6 661
08:16:47 6 1016 188 0 O 0 96.6 664
08:19:51 6 1016 192 0 SW 0 96.6 663
08:22:49 6 1016 191 0 S 0 96.6 669
08:25:48 6 1016 189 2 SW 0 96.6 676
08:28:49 6 1016 190 0 SW 0 96.6 679
08:31:50 6 1016 192 0 W 0 96.6 678
08:34:50 6 1016 192 0 SW 0 96.6 677
08:37:49 6 1016 194 3 W 0 96.6 665
08:40:47 6 1016 195 2 NW 0 96.6 661
08:43:49 6 1016 194 1 NW 0 96.6 660
08:46:47 6 1016 195 5 W 0 96.6 661
08:49:49 6 1016 195 2 S 0 96.6 670
08:52:47 6 1016 196 1 S 0 96.6 662
08:55:47 6 1016 197 3 W 0 96.6 662
08:58:48 6 1015 198 0 S 0 96.6 664
09:01:48 6 1016 198 3 W 0 96.6 667
09:04:47 7 1016 197 2 S 0 96.6 668
09:07:50 7 1016 197 0 W 0 96.5 669
09:10:48 7 1016 198 2 W 0 96.5 670
09:13:51 7 1016 199 5 NW 0 96.6 665
09:16:47 7 1016 199 1 NO 0 96.6 663
09:19:51 7 1016 199 4 NW 0 96.6 666
09:22:51 7 1016 201 1 NW 0 96.6 658
09:25:46 7 1016 200 1 N 0 96.6 661
09:28:47 7 1017 200 1 N 0 96.5 659
09:31:47 7 1016 201 0 S 0 96.2 674
09:34:49 7 1016 202 2 NW 0 95.8 680
09:37:47 8 1017 204 1 S 0 95.6 679
09:40:49 8 1017 207 0 NW 0 95.3 685
09:43:49 8 1016 209 2 NW 0 95 689
09:46:47 8 1017 212 3 NW 0 94.6 697
09:49:49 9 1017 214 3 NW 0 93.5 695
09:52:48 9 1016 216 3 N 0 91.8 703
09:55:47 9 1017 217 3 NO 0 91.3 706
09:58:51 9 1016 216 2 NO 0 88.7 710
10:01:48 9 1017 208 2 SO 0 88.5 715
10:04:48 9 1016 205 0 S 0 88.5 720
10:07:47 9 1016 206 1 SO 0 89 714
10:10:49 9 1016 206 4 SO 0 88.6 720
10:13:48 9 1016 209 0 W 0 88.3 715
10:16:48 9 1016 209 1 NW 0 87.8 714
10:19:49 9 1017 214 0 NW 0 88 719
10:22:47 9 1016 214 1 SO 0 88.4 720
10:25:47 9 1016 211 5 N 0 88.6 718
10:28:46 10 1016 216 2 N 0 87.5 715
10:31:48 10 1017 215 0 N 0 87.4 720
10:34:50 10 1016 214 0 SO 0 86.5 710
10:37:50 10 1017 217 0 SO 0 85.9 720
10:40:48 11 1016 221 3 N 0 84.8 721
10:43:51 11 1016 221 3 NW 0 83.9 715
10:46:49 11 1017 220 2 NW 0 83.7 717
10:49:49 11 1017 222 2 NO 0 82.9 714
10:52:50 11 1016 222 2 W 0 82.6 721
10:55:49 11 1016 222 1 SO 0 82.7 723
10:58:49 12 1016 222 0 NW 0 82.9 718
11:01:50 12 1016 222 2 SW 0 80.4 717
11:04:49 12 1016 223 0 SW 0 78.6 714
11:07:47 12 1016 224 2 W 0 77.6 719
11:10:50 12 1017 223 4 SW 0 77.4 713
11:13:50 12 1016 223 2 NW 0 77.8 720
11:16:47 12 1016 223 1 SO 0 77.7 728
11:19:48 13 1016 223 1 SW 0 75.8 727
11:22:49 12 1016 223 2 W 0 76.7 723
11:25:47 12 1016 222 4 W 0 77.4 724
11:28:50 12 1016 220 6 NW 0 77.3 720
11:31:46 12 1016 222 4 NW 0 74.9 726
11:34:47 12 1017 223 2 S 0 77 729
11:37:47 12 1016 225 0 O 0 76.8 735
11:40:47 12 1016 223 2 0 75.7 735
11:43:48 12 1016 219 1 SW 0 77.1 735
11:46:46 12 1016 220 1 S 0 77.4 723
11:49:46 12 1016 221 6 SW 0 78.5 733
11:52:48 12 1017 222 2 SO 0 77.5 741
11:55:47 13 1017 220 1 NW 0 76.9 747
11:58:49 12 1016 221 5 NW 0 77 741
12:01:49 12 1016 220 0 S 0 76.5 743
12:04:49 13 1016 222 3 N 0 77 737
12:07:48 13 1015 224 2 NW 0 77.2 737
12:10:48 13 1016 225 7 NW 0 75 732
12:13:47 13 1017 225 2 W 0 73.8 743
12:16:48 14 1015 222 8 NW 0 74 748
12:19:48 13 1017 220 2 NW 0 73.4 748
12:22:50 13 1016 221 6 NW 0 73.4 744
12:25:48 13 1016 219 6 N 0 72.9 747
12:28:48 14 1015 218 2 N 0 73.6 750
12:31:48 14 1016 220 7 N 0 71.5 753
12:34:46 14 1016 223 3 N 0 70.6 750
12:37:47 14 1015 223 3 W 0 70.2 753
12:40:49 15 1016 224 2 S 0 69.5 755
12:43:49 16 1016 225 7 NW 0 67.5 759
12:46:50 16 1016 224 5 NW 0 66.7 761
12:49:49 17 1016 222 1 O 0 63.6 759
12:52:47 16 1015 221 7 W 0 63.4 740
12:55:47 16 1016 219 0 SO 0 64.7 740
12:58:48 17 1014 219 5 NW 0 65.9 740
13:01:46 17 1015 218 1 W 0 64 738
13:04:45 17 1015 221 3 O 0 63.4 740
13:07:48 17 1015 220 4 NW 0 62.3 731
13:10:46 16 1015 218 3 N 0 61 737
13:13:47 16 1015 218 0 S 0 64.5 751
13:16:48 17 1015 218 6 W 0 65 744
13:19:46 16 1015 220 7 O 0 61.9 753
13:22:48 16 1015 219 2 O 0 62.3 752
13:25:48 16 1016 221 5 NW 0 62.3 748
13:28:47 15 1014 222 3 N 0 64.4 741
13:31:46 15 1015 221 5 0 64.6 732
13:34:48 15 1015 224 3 NW 0 65.3 731
13:37:47 16 1015 225 4 SW 0 64.4 734
13:40:48 17 1014 225 0 S 0 64.5 731
13:43:46 18 1015 223 1 N 0 58.6 729
13:46:46 17 1015 228 1 S 0 58.3 726
13:49:47 17 1015 224 0 SW 0 59.6 726
13:52:30 16 1015 229 2 S 0 51.3 723
13:55:47 18 1014 231 2 S 0 58.6 723
13:58:49 19 1014 230 1 SW 0 55.5 714
14:01:51 18 1014 232 15 NW 0 54.4 702
14:04:49 17 1014 229 3 NW 0 54.8 705
14:07:49 16 1015 232 4 NO 0 60.5 711
14:10:47 16 1014 233 1 S 0 64.3 711
14:13:50 18 1014 232 6 SW 0 62 705
14:16:48 19 1015 232 1 N 0 58 702
14:19:47 19 1015 233 7 W 0 57.4 700
14:22:49 19 1014 234 5 NW 0 54.3 691
14:25:48 19 1014 233 0 SW 0 53.7 690
14:28:50 19 1014 233 1 NO 0 56.7 694
14:31:48 19 1014 234 2 SW 0 57 685
14:34:47 20 1014 235 0 S 0 55.4 683
14:37:31 18 1014 236 1 S 0 46.7 681
14:40:48 20 1014 237 3 S 0 51.7 682
14:43:48 20 1014 237 3 W 0 52.2 670
14:46:48 20 1014 242 4 S 0 52.3 665
14:49:50 20 1013 242 0 NW 0 52.6 673
14:52:47 20 1014 242 2 W 0 52.3 674
14:55:30 19 1014 243 6 S 0 44.7 672
14:58:49 20 1014 243 2 NW 0 48.9 663
15:01:45 20 1013 243 1 N 0 51.2 661
15:04:48 20 1013 241 3 SO 0 51.3 656
15:07:47 20 1013 244 2 SW 0 51.7 649
15:10:48 20 1013 244 2 SW 0 49.2 645
15:13:48 20 1013 244 2 S 0 48.6 642
15:16:49 20 1013 245 3 SW 0 48.7 651
15:19:50 20 1013 245 7 W 0 49.3 656
15:22:49 20 1013 245 2 W 0 49.3 659
15:25:48 19 1013 245 2 NW 0 50.1 652
15:28:49 19 1013 245 10 NW 0 50.4 649
15:31:47 19 1013 243 5 S 0 50.8 644
15:34:49 19 1013 245 2 W 0 50.5 641
15:37:48 19 1013 245 2 SW 0 51 645
15:40:49 19 1013 246 5 NW 0 51.8 645
15:43:47 19 1013 246 3 S 0 51.5 641
15:46:47 18 1013 246 8 0 52.5 633
15:49:47 17 1013 246 3 W 0 52.9 621
15:52:48 18 1013 246 1 S 0 53.6 615
15:55:49 19 1013 246 1 SO 0 53.3 615
15:58:48 19 1013 246 5 O 0 49.6 612
16:01:51 18 1013 246 5 NW 0 49 609
16:04:50 18 1013 246 0 W 0 51.6 615
16:07:48 18 1014 246 2 SO 0 51.7 611
16:10:49 19 1013 223 3 NW 0 51.6 577
16:13:48 18 1013 221 0 O 0 50.5 477
16:16:49 18 1013 220 6 NW 0 51.4 430
16:19:51 18 1013 220 3 NW 0 52.6 422
16:22:48 18 1013 219 6 NW 0 53 418
16:25:46 18 1013 218 0 O 0 53.4 413
16:28:48 19 1013 217 7 N 0 52.1 413
16:31:48 19 1013 217 4 SW 0 51.6 406
16:34:48 19 1013 217 4 W 0 50.6 406
16:37:48 19 1013 217 0 S 0 50.9 407
16:40:48 19 1013 220 2 SW 0 49.8 404
16:43:48 19 1013 247 1 N 0 49.6 406
16:46:45 19 1013 247 0 S 0 49.7 407
16:49:48 19 1013 247 5 W 0 50.5 436
16:52:48 19 1013 247 3 S 0 48.9 440
16:55:47 19 1013 247 3 SW 0 48.9 439
16:58:48 19 1013 246 4 N 0 49.8 436
17:01:46 18 1013 247 2 N 0 49.2 439
17:04:47 18 1013 247 5 W 0 50.7 451
17:07:50 18 1013 247 1 SW 0 51.5 448
17:10:48 19 1013 247 0 SO 0 51.6 448
17:13:46 19 1013 247 0 NW 0 51.1 436
17:16:47 19 1013 247 2 S 0 48.6 445
17:19:47 20 1013 247 0 NW 0 47.3 442
17:22:47 19 1013 247 0 S 0 48.1 440
17:25:49 19 1013 247 0 S 0 49 441
17:28:47 19 1013 247 0 SW 0 49 451
17:31:47 19 1013 245 7 W 0 48.7 447
17:34:47 19 1013 246 2 S 0 48.1 445
17:37:48 19 1013 245 2 SW 0 49.6 448
17:40:48 18 1013 243 4 N 0 48.1 445
17:43:48 18 1013 245 0 W 0 49.9 442
17:46:46 18 1013 247 2 W 0 50.3 445
17:49:47 18 1013 246 1 S 0 50.3 444
17:52:48 18 1013 244 1 SW 0 49.6 446
17:55:46 18 1013 246 3 SW 0 49.7 441
17:58:47 18 1013 246 1 W 0 49.3 442
18:01:49 18 1013 246 2 W 0 49.2 445
18:04:50 18 1013 246 0 S 0 49 439
18:07:47 18 1013 246 1 S 0 48.9 439
18:10:47 18 1013 243 0 SW 0 49 436
18:13:47 18 1013 244 1 W 0 49 439
18:16:48 17 1013 244 0 SW 0 49.8 445
18:19:48 17 1013 242 1 SW 0 50.4 445
18:22:47 17 1013 240 1 SW 0 50.5 459
18:25:48 17 1012 234 2 S 0 51 457
18:28:49 16 1013 229 0 SW 0 51.4 459
18:31:47 16 1013 230 0 W 0 52.2 454
18:34:49 16 1013 225 0 SW 0 53.4 457
18:37:47 15 1013 225 0 SW 0 54.4 462
18:40:49 15 1013 230 2 SW 0 55.2 459
18:43:47 15 1013 233 0 S 0 55.6 460
18:46:46 15 1013 237 1 S 0 56.1 457
18:49:46 15 1013 234 0 S 0 56.4 459
18:52:47 15 1013 234 0 SW 0 56.7 463
18:55:49 15 1012 223 3 SW 0 57 474
18:58:48 15 1013 194 0 S 0 57.5 471
19:01:49 15 1013 191 0 SW 0 57.5 466
19:04:50 15 1013 189 2 SW 0 57.3 471
19:07:48 15 1012 186 0 SW 0 57.1 477
19:10:47 15 1013 182 2 SW 0 56.9 474
19:13:46 14 1013 178 1 S 0 58.1 477
19:16:48 13 1013 174 0 SW 0 59.3 472
19:19:49 13 1013 169 0 SW 0 60.3 477
19:22:49 12 1013 164 0 SW 0 61.4 468
19:25:47 12 1013 158 0 SW 0 62.2 478
19:28:47 12 1012 151 0 SW 0 63 481
19:31:49 12 1012 143 1 SW 0 64.6 489
19:34:47 12 1013 134 0 SW 0 65.7 486
19:37:49 12 1013 123 1 SW 0 66 486
19:40:46 11 1013 110 1 SW 0 66.4 491
19:43:48 11 1012 97 0 SW 0 66.8 500
19:46:48 11 1013 83 0 SW 0 67.6 515
19:49:48 11 1013 68 0 SW 0 68 518
19:52:47 10 1012 54 0 SW 0 68.3 521
19:55:50 10 1012 40 0 SW 0 68.6 522
19:58:49 10 1013 28 0 SW 0 68.8 529
20:01:47 10 1013 19 0 SW 0 68.8 538
20:04:48 9 1012 12 0 SW 0 69.6 553
20:07:48 9 1013 8 0 SW 0 70.1 563
20:10:46 9 1012 5 0 SW 0 70.4 582
20:13:48 9 1012 3 0 SW 0 70.9 585
20:16:48 8 1013 0 0 SW 0 71.4 594
20:19:47 8 1012 0 0 SW 0 71.6 585
20:22:47 8 1013 0 0 SW 0 72.6 590
20:25:49 8 1012 0 0 SW 0 72.9 594
20:28:48 8 1012 0 0 SW 0 73.3 604
20:31:46 8 1013 0 0 SW 0 74.3 603
20:34:47 8 1012 0 0 SW 0 75.2 608
20:37:46 8 1012 0 0 SW 0 74.8 609
20:40:49 8 1012 0 0 SW 0 75.7 609
20:43:48 8 1013 0 0 SW 0 76.3 618
20:46:47 7 1013 0 0 SW 0 76.5 627
20:49:47 7 1013 0 0 SW 0 77.1 634
20:52:48 7 1013 0 0 SW 0 77.9 635
20:55:48 7 1013 0 0 SW 0 77.7 627
20:58:47 7 1012 0 0 SW 0 78.2 632
21:01:48 7 1013 0 0 SW 0 78.2 635
21:04:48 7 1013 0 0 SW 0 78.1 633
21:07:47 7 1013 0 0 SW 0 78.2 633
21:10:47 7 1013 0 0 SW 0 79 644
21:13:47 7 1013 0 0 SW 0 79.6 647
21:16:47 6 1013 0 0 SW 0 80.2 653
21:19:46 6 1013 0 0 SW 0 80.8 656
21:22:49 6 1013 0 0 SW 0 81.3 665
21:25:45 6 1013 0 0 SW 0 81.1 671
21:28:48 6 1013 0 0 SW 0 81.4 667
21:31:47 6 1013 0 0 SW 0 81.4 660
21:34:50 6 1013 0 0 SW 0 83.7 658
21:37:48 6 1013 0 0 SW 0 83.9 665
21:40:49 6 1013 0 0 SW 0 83 676
21:43:48 6 1013 0 0 SW 0 83.2 679
21:46:46 6 1013 0 0 SW 0 83.8 674
21:49:47 6 1013 0 0 SW 0 83.5 680
21:52:49 6 1013 0 0 SW 0 83.4 677
21:55:46 6 1013 0 0 SW 0 83.6 679
21:58:46 6 1013 0 0 SW 0 83.8 676
22:01:48 5 1013 0 0 SW 0 83.8 686
22:04:49 5 1013 0 0 SW 0 83.8 697
22:07:47 5 1013 0 0 SW 0 84.1 694
22:10:49 5 1012 0 0 SW 0 84.4 695
22:13:47 5 1013 0 0 SW 0 84.8 692
22:16:48 5 1013 0 0 SW 0 85.3 706
22:19:48 5 1013 0 0 SW 0 85.6 703
22:22:48 5 1012 0 0 SW 0 85.7 712
22:25:45 5 1013 0 0 SW 0 85.8 715
22:28:48 5 1012 0 0 SW 0 86.3 711
22:31:48 5 1012 0 0 SW 0 86.8 710
22:34:48 5 1013 0 0 SW 0 87.4 712
22:37:49 5 1013 0 0 SW 0 87.4 712
22:40:48 5 1013 0 0 SW 0 87.8 717
22:43:46 5 1013 0 0 SW 0 88.4 720
22:46:46 5 1013 0 0 SW 0 87.6 724
22:49:47 5 1012 0 0 SW 0 87.3 732
22:52:46 5 1013 0 0 SW 0 87.1 726
22:55:46 5 1013 0 0 SW 0 87 723
22:58:50 5 1013 0 0 SW 0 88 726
23:01:45 4 1012 0 0 SW 0 87.9 735
23:04:47 4 1013 0 0 SW 0 87.8 747
23:07:47 4 1013 0 0 SW 0 87.9 743
23:10:47 4 1012 0 0 SW 0 88 746
23:13:47 4 1012 0 0 SW 0 88.1 742
23:16:49 4 1013 0 0 SW 0 88.7 750
23:19:49 4 1013 0 0 SW 0 88.8 758
23:22:48 4 1012 0 0 SW 0 88.7 759
23:25:48 4 1013 0 0 SW 0 88.9 755
23:28:51 4 1013 0 0 SW 0 89.2 758
23:31:49 4 1013 0 0 SW 0 89.7 761
23:34:48 4 1013 0 0 SW 0 90.2 753
23:37:48 4 1012 0 0 SW 0 90.8 750
23:40:45 4 1012 0 0 SW 0 91 746
23:43:47 4 1012 0 0 SW 0 91 751
23:46:45 4 1012 0 1 SW 0 91.1 749
23:49:47 4 1012 0 0 SW 0 91.6 742
23:52:46 4 1012 0 0 SW 0 91.5 755
23:55:51 5 1012 0 0 SW 0 93 756
23:58:47 5 1012 0 0 SW 0 93.7 751

Letzte Änderung : 22-Jul-2022
Copyright Jens Köhler, Wolfsburg, Obere Dorfstraße 10d